TimeEST,TemperatureF,Dew PointF,Humidity,Sea Level PressureIn,VisibilityMPH,Wind Direction,Wind SpeedMPH,Gust SpeedMPH,PrecipitationIn,Events,Conditions,WindDirDegrees,DateUTC
12:04 AM,30.0,28.0,92,30.30,1.5,Calm,Calm,-,N/A,,Clear,0,2012-12-04 05:04:00
12:16 AM,30.0,27.0,88,30.29,0.8,Calm,Calm,-,N/A,,Clear,0,2012-12-04 05:16:00
12:27 AM,30.0,28.0,92,30.29,2.5,Calm,Calm,-,N/A,,Clear,0,2012-12-04 05:27:00
12:34 AM,30.0,28.0,92,30.29,6.0,Calm,Calm,-,N/A,,Clear,0,2012-12-04 05:34:00
12:52 AM,30.0,28.0,92,30.30,7.0,Calm,Calm,-,N/A,,Clear,0,2012-12-04 05:52:00
1:11 AM,30.0,27.0,88,30.30,1.2,Calm,Calm,-,N/A,,Clear,0,2012-12-04 06:11:00
1:19 AM,28.9,27.0,92,30.29,0.5,Calm,Calm,-,N/A,Fog,Light Freezing Fog,0,2012-12-04 06:19:00
1:30 AM,28.9,27.0,92,30.29,1.5,Calm,Calm,-,N/A,,Clear,0,2012-12-04 06:30:00
1:39 AM,28.9,27.0,92,30.29,1.0,Calm,Calm,-,N/A,,Clear,0,2012-12-04 06:39:00
1:52 AM,28.9,26.1,89,30.30,1.2,Calm,Calm,-,N/A,,Clear,0,2012-12-04 06:52:00
2:22 AM,28.9,26.1,89,30.29,2.0,Calm,Calm,-,N/A,,Clear,0,2012-12-04 07:22:00
2:29 AM,28.9,26.1,89,30.30,1.2,Calm,Calm,-,N/A,,Clear,0,2012-12-04 07:29:00
2:36 AM,28.9,26.1,89,30.29,2.0,Calm,Calm,-,N/A,,Clear,0,2012-12-04 07:36:00
2:52 AM,28.9,26.1,89,30.29,4.0,Calm,Calm,-,N/A,,Partly Cloudy,0,2012-12-04 07:52:00
3:05 AM,28.9,26.1,89,30.29,7.0,Calm,Calm,-,N/A,,Mostly Cloudy,0,2012-12-04 08:05:00
3:36 AM,30.0,28.0,92,30.29,1.5,Calm,Calm,-,N/A,,Overcast,0,2012-12-04 08:36:00
3:39 AM,30.0,28.0,92,30.29,0.8,Calm,Calm,-,N/A,,Mist,0,2012-12-04 08:39:00
3:52 AM,30.9,28.9,92,30.30,0.2,Calm,Calm,-,N/A,Fog,Light Freezing Fog,0,2012-12-04 08:52:00
4:52 AM,32.0,30.0,92,30.30,0.2,Calm,Calm,-,N/A,Fog,Fog,0,2012-12-04 09:52:00
5:52 AM,33.1,30.9,92,30.31,0.2,Calm,Calm,-,N/A,Fog,Fog,0,2012-12-04 10:52:00
6:52 AM,33.1,32.0,96,30.31,0.2,ESE,3.5,-,N/A,Fog,Fog,110,2012-12-04 11:52:00
7:52 AM,35.1,34.0,96,30.33,0.2,Calm,Calm,-,N/A,Fog,Fog,0,2012-12-04 12:52:00
8:52 AM,41.0,39.0,93,30.31,0.5,ESE,3.5,-,N/A,Fog,Fog,120,2012-12-04 13:52:00
9:07 AM,44.1,43.0,96,30.32,1.5,Calm,Calm,-,N/A,,Overcast,0,2012-12-04 14:07:00
9:10 AM,45.0,43.0,93,30.32,3.0,South,3.5,-,N/A,,Overcast,180,2012-12-04 14:10:00
9:52 AM,46.9,45.0,93,30.31,6.0,SSE,4.6,-,N/A,,Overcast,160,2012-12-04 14:52:00
10:52 AM,48.9,46.9,93,30.29,5.0,SSE,3.5,-,N/A,,Overcast,160,2012-12-04 15:52:00
11:02 AM,50.0,46.9,89,30.28,5.0,SE,5.8,-,N/A,,Overcast,130,2012-12-04 16:02:00
11:52 AM,52.0,48.9,89,30.26,10.0,South,6.9,-,N/A,,Overcast,190,2012-12-04 16:52:00
12:52 PM,55.0,48.9,80,30.23,10.0,South,6.9,-,N/A,,Overcast,180,2012-12-04 17:52:00
1:52 PM,55.9,48.9,77,30.21,10.0,SSW,10.4,-,0.00,Rain,Light Rain,200,2012-12-04 18:52:00
2:17 PM,55.0,50.0,83,30.20,10.0,Variable,5.8,-,0.00,,Overcast,0,2012-12-04 19:17:00
2:52 PM,54.0,50.0,86,30.20,8.0,South,5.8,-,0.00,Rain,Light Rain,190,2012-12-04 19:52:00
2:59 PM,54.0,50.0,86,30.20,8.0,South,5.8,-,0.00,,Overcast,180,2012-12-04 19:59:00
3:52 PM,54.0,50.0,86,30.19,9.0,South,5.8,-,0.00,,Overcast,180,2012-12-04 20:52:00
4:52 PM,54.0,50.0,86,30.18,9.0,SSE,5.8,-,N/A,,Overcast,160,2012-12-04 21:52:00
6:52 PM,55.0,50.0,83,30.15,10.0,Variable,5.8,-,N/A,,Overcast,0,2012-12-04 23:52:00
7:52 PM,55.9,51.1,84,30.13,10.0,South,9.2,-,N/A,,Overcast,180,2012-12-05 00:52:00
8:52 PM,55.0,51.1,86,30.10,8.0,South,8.1,-,N/A,,Mostly Cloudy,190,2012-12-05 01:52:00
8:59 PM,55.0,51.1,86,30.09,8.0,South,8.1,-,N/A,,Scattered Clouds,170,2012-12-05 01:59:00
9:52 PM,55.0,52.0,89,30.07,8.0,South,8.1,-,N/A,,Clear,180,2012-12-05 02:52:00
10:41 PM,55.9,52.0,87,30.05,8.0,South,6.9,-,N/A,,Mostly Cloudy,190,2012-12-05 03:41:00
10:52 PM,55.9,52.0,87,30.05,8.0,South,5.8,-,N/A,,Overcast,180,2012-12-05 03:52:00
11:09 PM,57.0,53.1,87,30.04,9.0,South,5.8,-,N/A,,Overcast,180,2012-12-05 04:09:00
11:52 PM,57.9,54.0,87,30.02,9.0,SSW,9.2,-,N/A,,Overcast,200,2012-12-05 04:52:00